Theta_e
320 320 321 321 321 321 321 321 321 321 322 322 322 323 323 323 322 322 323 323 323 323 323 324 325 325 325 325 326 324 321 316 313 312 309 313 321 329 330 337 337 333 325 314 313 311 309 310 310 311 313 312 311 310 312 312 310 310 303 301 299 300 299 303 300 302 303 300 303 303 303 303 301 304 303 302 302 303 305 304 306 308 306 308 311 309 311 313
319 320 320 320 320 321 321 321 321 321 321 322 322 322 322 322 322 322 322 322 322 323 323 324 324 325 325 325 325 324 320 316 313 311 311 325 331 329 338 339 337 330 322 313 311 310 308 307 309 310 311 308 311 309 309 310 311 306 304 301 298 302 302 305 304 305 301 302 304 303 300 301 302 303 304 301 303 304 304 306 306 305 307 309 309 310 308 312
319 319 319 320 320 320 320 320 321 321 321 321 321 321 321 321 322 322 322 322 322 322 322 323 324 324 325 325 324 321 320 318 307 306 311 331 334 335 340 338 333 329 316 313 312 311 308 308 309 309 309 307 308 306 309 308 308 308 304 299 301 305 304 302 304 303 304 304 303 303 303 300 303 302 303 301 302 304 302 303 306 305 306 308 309 310 309 310
319 319 319 319 319 319 320 320 320 320 320 320 320 321 321 321 321 322 322 322 322 322 322 322 323 324 324 324 324 321 317 312 305 307 313 322 333 339 340 337 333 325 315 313 312 310 309 310 309 309 307 304 305 309 305 308 305 307 303 300 303 305 303 304 303 304 304 302 302 302 302 300 304 303 302 302 300 302 304 306 306 306 307 309 310 311 312 308
319 319 318 318 319 319 319 320 320 320 320 319 320 320 320 321 320 321 321 321 321 322 322 322 323 323 323 324 321 319 315 303 305 309 318 335 337 337 338 335 329 317 315 310 310 310 310 309 307 307 305 303 304 306 305 308 308 305 303 306 306 302 301 305 305 304 303 300 300 301 299 302 302 299 300 302 300 301 305 308 310 309 309 308 308 309 311 308
319 318 318 318 319 318 319 319 320 320 320 319 319 320 321 320 321 321 321 321 321 322 322 322 322 323 323 323 323 315 309 295 310 313 331 330 338 339 336 332 323 312 312 311 310 309 308 307 307 304 303 302 303 301 304 306 307 300 304 305 306 306 303 306 305 301 301 301 301 301 303 303 301 302 304 302 302 305 309 310 310 310 310 309 308 308 308 310
318 318 318 318 318 318 319 319 319 320 320 319 319 320 321 321 320 321 321 321 321 322 321 322 322 322 323 319 316 309 306 307 312 320 334 338 339 338 334 327 320 313 312 309 309 308 308 306 305 304 303 302 303 302 303 304 304 302 300 303 303 306 304 306 304 298 301 301 302 304 304 301 302 299 304 302 305 307 309 310 309 310 310 307 305 306 306 308
318 318 318 318 318 318 319 319 319 320 319 320 320 320 320 321 320 320 320 321 321 321 321 321 322 322 321 316 313 306 306 305 311 320 333 337 337 330 321 316 313 315 311 310 308 308 307 304 303 304 302 301 302 302 302 301 303 301 301 304 303 302 304 305 304 302 302 302 304 303 300 302 304 303 303 301 304 307 308 309 309 309 308 307 305 305 306 307
320 318 318 318 318 318 319 319 319 320 320 319 320 320 320 321 320 320 320 320 321 321 321 321 321 322 320 311 307 302 302 319 308 319 336 332 324 315 315 311 312 311 311 310 310 310 308 305 305 305 300 301 302 301 299 300 298 302 302 304 302 302 303 304 302 301 301 302 303 300 300 303 304 301 298 302 305 307 308 308 308 307 306 305 305 305 305 305
320 319 319 319 319 318 318 318 319 320 320 320 320 320 320 320 320 320 320 321 320 321 320 321 321 320 309 311 308 298 311 308 317 329 327 322 315 313 313 318 311 311 309 307 306 308 307 307 306 307 305 302 301 300 300 299 298 300 302 301 301 301 301 302 300 301 302 301 302 299 300 301 301 300 298 305 306 307 306 305 306 305 304 305 305 305 306 305
319 319 320 320 319 318 318 318 319 319 320 320 320 320 320 320 320 320 320 320 320 320 320 320 320 317 310 308 303 301 312 318 322 324 318 317 314 313 315 315 313 311 311 306 308 309 309 308 308 306 304 301 300 299 299 300 301 299 298 299 300 301 301 300 299 299 300 299 300 300 299 301 301 298 298 303 304 304 303 304 304 304 304 305 305 305 306 304
321 320 319 319 318 318 318 318 319 319 320 320 320 320 320 320 320 319 319 319 319 320 320 320 319 317 307 305 304 308 311 316 320 319 317 317 315 312 311 311 311 316 311 307 307 312 309 310 309 304 300 303 298 297 298 300 300 298 298 295 298 300 298 301 300 301 300 298 298 300 297 296 298 296 302 304 306 304 303 302 303 304 305 306 306 305 305 306
321 320 318 318 318 318 318 318 319 319 319 320 320 320 320 320 319 319 319 319 320 320 320 320 317 316 309 304 309 311 311 318 316 312 311 313 310 309 310 310 309 307 311 310 310 312 308 309 308 303 303 302 299 297 298 300 297 298 298 296 296 297 297 300 301 297 295 298 298 299 290 296 298 301 303 305 304 301 300 301 303 304 304 305 305 304 305 306
320 320 318 318 318 318 318 318 319 319 319 320 320 320 320 319 319 319 319 319 320 319 320 320 320 313 306 305 305 306 309 313 313 314 311 312 312 311 312 310 311 308 310 307 308 306 307 306 308 304 303 301 299 302 299 298 297 296 297 295 294 293 294 298 297 294 294 298 298 298 291 294 299 302 304 304 301 299 300 301 302 303 303 304 305 305 305 306
321 320 320 319 318 318 318 318 319 319 319 319 320 319 319 319 319 318 319 318 319 319 319 316 315 308 302 305 306 307 314 310 310 312 313 309 310 309 308 309 309 308 308 309 308 304 307 309 306 301 300 301 302 298 297 296 297 297 293 292 295 292 295 299 299 297 295 296 296 296 291 293 298 301 303 302 300 298 299 301 302 303 303 303 304 304 304 305
320 320 320 320 319 319 319 319 319 319 319 319 319 319 319 319 318 318 319 318 319 319 319 314 310 305 302 299 308 317 308 308 308 308 310 311 313 309 311 308 307 307 307 305 305 305 306 307 301 300 300 299 298 296 295 295 296 296 293 292 293 295 294 295 299 300 299 296 295 296 292 296 296 301 302 300 299 299 299 300 301 302 303 303 304 304 304 304
321 320 320 319 320 320 319 319 319 319 319 319 319 319 318 318 318 318 319 319 317 318 317 306 308 307 299 306 306 303 303 307 306 310 308 309 309 309 308 307 305 305 307 305 306 307 305 303 299 300 301 298 299 298 292 292 292 294 295 292 295 292 294 292 298 300 300 295 294 295 292 294 297 300 301 302 302 301 300 300 301 302 302 303 304 304 304 304
321 321 320 320 321 320 320 320 320 319 319 319 318 317 316 318 319 317 316 316 316 316 312 312 311 305 302 305 301 303 305 304 310 306 307 306 310 308 307 304 302 305 305 303 305 302 302 300 300 298 299 297 295 296 291 289 293 294 294 293 293 293 292 292 292 297 297 297 294 295 293 294 296 298 299 300 301 300 299 300 300 301 302 303 303 303 304 304
321 321 320 321 321 320 320 320 321 320 319 320 318 314 316 314 314 315 309 308 305 303 300 302 301 298 299 302 304 301 308 306 307 308 306 308 307 306 305 305 306 303 301 300 299 300 301 300 300 297 294 295 294 295 295 296 297 295 294 293 292 291 293 292 296 298 296 294 293 294 293 295 297 298 299 300 301 300 300 301 301 301 302 302 303 304 304 305
321 321 321 322 321 321 320 320 321 320 319 318 315 311 311 310 307 303 307 307 303 305 304 304 305 302 303 305 305 306 307 307 305 306 307 307 306 305 303 304 303 303 300 298 299 299 301 295 293 293 296 298 299 298 298 299 295 293 293 292 292 292 293 295 296 298 297 293 293 294 295 295 296 297 299 300 301 300 300 300 301 301 302 303 304 304 304 303
321 321 321 321 320 320 321 321 321 320 318 317 311 310 309 303 303 303 302 306 309 306 304 305 305 304 306 305 306 306 303 302 305 306 307 309 307 305 300 302 300 297 299 298 299 297 297 294 295 297 299 299 299 299 297 296 295 293 293 293 292 294 291 295 295 298 297 292 292 294 293 294 296 297 298 300 300 299 299 300 301 301 303 304 304 303 303 303
321 322 321 321 321 321 321 321 321 319 316 312 311 307 303 303 304 305 305 304 309 308 305 305 302 302 306 303 305 305 306 302 303 305 309 308 303 301 301 300 297 298 297 297 296 295 293 292 296 299 300 296 295 295 294 294 294 294 292 293 292 292 295 296 296 297 295 292 292 295 292 293 295 297 299 299 299 300 301 301 301 302 303 303 303 302 302 303
321 321 321 321 321 322 322 321 321 316 315 314 310 304 306 306 306 308 306 301 299 304 301 303 300 301 302 304 304 305 301 299 300 304 305 307 301 301 300 298 297 297 296 297 295 295 292 295 297 300 299 295 294 293 293 293 294 292 293 291 289 294 291 290 294 292 292 292 291 293 290 292 296 298 299 300 299 300 302 302 303 304 302 300 301 301 302 303
321 321 321 321 321 322 322 321 320 317 311 308 310 309 306 307 309 307 305 301 300 305 302 303 302 302 301 302 303 304 301 301 300 301 307 304 301 303 300 299 296 295 295 296 296 296 295 296 297 296 297 295 294 294 292 292 292 295 294 293 292 292 294 292 293 294 294 295 294 293 293 295 298 296 298 299 298 298 300 301 302 302 303 303 303 304 303 302
320 320 320 321 320 321 320 320 317 312 306 307 309 310 307 307 309 310 304 301 298 300 302 300 301 302 302 308 306 301 301 300 301 299 304 305 299 298 298 298 298 295 296 297 296 295 296 298 296 295 294 294 294 292 293 294 291 293 296 294 294 295 293 294 295 292 291 291 292 291 288 291 294 296 296 300 301 300 302 301 300 300 300 302 302 302 303 304
320 319 320 319 320 320 321 317 313 309 311 312 312 309 305 306 308 307 302 297 294 302 302 298 304 298 305 299 302 300 301 298 300 301 302 305 305 300 297 297 296 294 295 294 294 295 296 295 294 295 295 293 293 293 296 295 291 290 293 297 295 294 294 293 292 291 287 287 291 293 286 284 294 294 297 298 298 299 302 302 301 299 299 300 301 301 301 302
319 319 319 320 320 320 317 316 311 311 315 312 310 308 306 308 307 306 297 295 292 302 298 299 299 299 303 298 299 300 294 295 301 301 301 304 301 306 296 296 294 294 295 296 293 292 293 292 293 294 294 293 292 290 295 294 292 290 294 292 295 294 292 292 291 290 289 292 293 290 291 286 287 293 297 297 296 299 301 302 300 298 298 300 300 301 301 301
315 316 318 320 321 319 320 316 314 316 316 312 308 307 307 306 307 305 298 287 287 303 296 297 299 305 302 297 299 296 293 294 294 297 299 302 301 299 297 295 295 295 293 294 288 295 293 292 292 292 292 292 292 295 297 295 293 292 290 292 292 292 292 291 291 290 290 287 286 289 291 286 288 293 293 294 295 297 299 298 296 297 298 298 299 300 300 300
312 313 314 318 320 320 320 317 315 316 310 305 306 307 306 305 302 301 295 284 300 297 307 296 305 300 298 299 297 293 295 294 293 296 301 300 302 299 296 297 295 294 293 295 292 294 293 294 296 297 294 292 296 293 295 296 292 292 291 292 291 292 291 290 290 289 289 286 284 287 291 287 288 296 293 294 293 295 297 295 295 296 298 299 300 300 299 299
310 311 313 318 318 318 316 316 315 311 306 306 306 306 304 303 302 295 289 283 301 293 299 299 298 295 296 295 294 295 294 294 294 297 299 298 299 300 294 295 294 294 294 293 293 295 293 293 295 294 294 297 295 290 292 296 294 291 294 293 292 292 290 289 290 289 287 283 286 290 291 290 285 294 295 294 296 295 296 295 294 296 298 298 298 298 297 296
310 310 311 315 316 316 316 311 314 308 307 306 307 306 308 306 296 290 282 293 298 299 297 296 294 296 295 294 294 293 294 292 295 296 295 297 296 297 297 294 297 294 290 291 291 295 292 293 293 295 297 293 295 292 290 289 290 294 292 291 291 289 289 288 287 288 283 283 288 290 291 291 284 290 292 296 296 294 295 294 297 296 296 297 297 296 295 295
308 309 309 312 316 318 314 314 311 308 308 308 310 312 310 293 299 285 285 303 289 299 295 294 293 295 292 293 293 293 293 291 291 292 293 294 295 294 294 293 294 289 290 289 292 291 289 291 294 296 296 294 294 292 291 291 291 292 291 290 285 284 285 283 284 281 282 284 285 286 288 285 286 293 296 297 298 299 296 297 296 295 295 295 295 295 294 294
308 308 309 311 312 315 316 312 310 308 309 309 312 311 299 289 282 292 291 297 292 300 296 296 294 293 295 295 296 294 292 294 292 292 294 291 292 294 296 296 296 294 287 291 289 291 294 291 291 294 295 295 296 290 289 288 289 289 288 287 284 280 280 277 283 283 283 286 284 285 289 284 291 293 297 297 300 298 296 295 295 296 294 293 294 294 293 292
307 308 309 310 314 316 313 311 311 310 312 312 309 302 295 285 284 295 295 296 296 297 297 296 293 293 293 295 298 296 295 298 293 292 294 292 292 293 297 296 293 292 293 289 287 290 286 288 293 292 294 297 294 296 296 294 288 288 292 290 288 287 283 279 282 280 283 286 285 287 285 284 285 292 294 296 297 298 296 294 294 294 294 294 293 293 292 291
306 307 308 311 312 314 313 313 312 313 313 309 303 297 286 287 291 290 292 296 297 297 297 297 297 296 296 293 295 294 297 294 295 293 292 292 293 293 295 297 295 295 294 287 291 287 289 289 297 297 293 295 293 298 297 293 290 290 292 293 288 287 291 283 286 285 285 286 285 283 285 291 291 297 298 300 301 294 294 294 294 293 293 292 291 290 290 290
306 306 310 307 309 314 315 313 313 314 311 306 297 290 287 292 290 295 293 299 297 295 296 297 297 293 294 295 295 294 298 295 295 293 293 293 295 294 297 297 296 294 292 288 291 287 287 286 294 292 291 293 295 294 293 297 287 288 289 286 289 295 291 286 285 286 285 283 280 289 287 291 297 298 299 298 294 292 293 292 293 292 291 290 289 288 288 288
302 305 302 305 308 314 315 313 313 312 310 304 296 288 295 296 300 299 302 297 297 298 295 290 292 291 292 290 293 292 293 295 293 292 290 293 291 295 293 295 296 295 297 296 291 294 287 289 293 292 291 294 290 292 296 294 295 289 284 289 290 293 293 288 281 284 281 278 281 288 284 288 289 286 293 294 293 293 292 291 290 289 289 288 287 287 287 287
301 302 304 303 308 315 315 314 313 310 307 301 292 293 300 296 302 300 299 297 297 300 296 293 292 297 290 290 290 292 294 292 293 291 290 293 289 299 294 296 296 296 297 298 293 293 295 286 293 295 297 291 290 293 292 295 296 292 290 295 288 284 283 287 284 276 277 277 280 285 287 288 290 290 292 293 294 293 291 290 288 287 287 287 286 286 286 287
300 301 298 304 308 315 314 314 312 307 301 295 293 291 298 299 300 300 297 298 299 297 294 295 292 297 296 292 293 291 293 290 292 291 289 292 288 297 296 297 296 293 293 295 292 294 293 286 288 291 293 292 291 291 285 289 293 290 291 290 293 289 287 285 285 285 285 279 280 281 286 283 292 293 296 294 293 293 291 288 286 285 285 285 285 285 285 286
299 298 296 309 312 315 314 313 307 304 299 292 294 294 300 296 300 297 297 300 298 296 294 294 296 292 295 294 296 292 294 293 292 292 291 296 291 299 294 296 295 293 293 295 294 296 289 293 283 291 288 292 287 290 288 291 286 287 288 286 288 287 290 289 287 285 283 281 281 280 279 286 293 297 295 292 292 291 291 288 286 284 284 284 284 284 284 284
301 297 297 311 313 314 313 308 301 296 296 299 299 297 298 296 297 298 298 299 301 301 297 297 296 293 295 293 293 296 293 292 293 292 293 294 293 289 298 295 296 294 294 295 293 293 287 289 284 288 289 288 290 296 295 295 294 291 289 287 288 285 283 281 279 289 285 283 279 279 277 286 294 298 293 292 290 290 289 287 284 283 283 283 284 284 285 284
297 289 295 311 313 313 307 297 297 300 296 295 294 298 296 303 299 299 299 298 299 299 299 297 297 295 295 294 295 295 294 293 293 292 293 291 295 293 296 295 295 297 295 291 293 296 293 289 287 284 287 289 293 297 295 295 294 293 293 290 293 290 289 284 278 282 286 285 286 284 281 283 297 293 291 288 288 287 287 286 284 283 283 284 284 284 284 284
297 292 304 307 314 310 303 295 299 296 294 297 302 300 300 298 298 298 297 297 296 298 297 297 296 295 296 296 295 294 295 290 293 291 294 295 295 296 293 294 296 297 298 292 296 291 291 285 284 285 291 293 295 297 295 294 294 292 293 292 289 288 289 287 286 287 283 284 282 282 279 284 290 287 287 286 285 285 285 286 284 284 283 284 284 284 284 284
296 296 300 306 310 310 299 288 289 292 295 298 298 298 302 300 296 294 296 296 296 294 295 294 295 296 294 295 294 292 295 286 292 292 291 292 292 294 293 294 296 287 294 292 291 294 287 289 287 282 283 285 289 292 292 292 292 289 289 292 292 292 290 288 288 286 281 282 284 282 276 284 292 288 287 286 284 284 283 283 285 283 283 283 283 284 284 284
293 293 295 299 305 303 294 298 294 293 294 294 295 294 296 297 300 299 298 296 298 296 294 292 296 295 293 293 292 292 294 291 287 294 293 293 293 292 292 292 294 293 292 294 293 297 289 287 285 279 276 275 276 277 280 283 284 287 288 288 290 289 288 287 283 285 280 283 285 281 280 288 291 289 288 287 285 284 283 283 283 284 283 283 283 284 284 284
291 284 292 294 298 298 296 298 297 296 293 293 292 293 295 293 297 299 300 298 299 298 297 297 294 293 291 291 289 290 290 293 289 288 290 290 292 290 286 289 288 289 290 292 289 293 287 286 286 285 282 280 282 284 287 287 286 283 285 287 287 289 289 287 285 281 279 283 282 284 285 285 288 291 292 293 292 288 285 283 282 282 282 282 283 283 283 284
291 286 289 287 294 294 293 295 293 295 292 296 289 294 291 293 294 294 300 293 296 296 295 296 293 292 290 290 289 289 292 291 293 289 289 290 292 294 289 290 288 288 289 289 290 287 286 284 285 285 285 285 286 286 289 288 284 285 284 284 287 286 286 284 281 278 285 281 276 283 285 283 285 290 291 290 290 288 283 283 282 282 283 283 283 283 284 283
285 287 289 290 289 288 289 288 292 290 291 293 291 294 290 291 292 289 293 295 295 295 292 293 294 294 292 290 289 286 288 288 289 286 290 289 290 291 289 288 287 287 289 289 290 289 285 282 285 285 284 286 287 287 288 287 285 285 285 284 284 285 285 282 282 285 284 279 276 282 284 282 285 288 289 291 289 287 285 283 284 283 283 283 283 283 283 283
287 287 287 290 286 286 287 287 287 289 289 290 289 290 290 290 289 292 291 291 292 290 294 286 288 285 286 287 288 285 286 282 283 288 286 286 283 284 285 287 286 286 288 287 288 288 285 281 285 284 282 283 285 285 286 284 283 282 282 283 284 284 283 284 284 285 284 282 284 284 284 284 286 288 290 287 286 285 284 284 284 283 283 283 283 283 283 282
285 286 284 286 286 284 284 285 286 286 286 288 285 287 289 289 288 290 291 290 286 288 293 288 285 284 284 285 287 285 286 286 285 283 286 284 283 286 283 285 285 286 285 284 286 286 286 279 285 280 279 279 282 283 283 283 281 279 281 282 282 282 282 283 282 282 283 282 283 282 282 281 287 287 284 284 284 285 284 281 282 283 283 283 283 283 283 283
290 290 290 285 284 283 283 284 284 285 284 285 284 287 287 287 287 289 288 290 288 287 288 285 284 284 284 284 284 284 287 284 285 285 284 284 282 285 282 283 285 280 283 283 285 284 285 279 284 280 276 275 280 280 280 281 279 278 277 279 279 279 278 280 280 283 282 280 282 282 280 280 284 282 284 282 282 281 280 281 281 282 283 283 283 283 283 283
289 290 290 288 282 286 281 283 282 283 279 283 286 285 285 283 282 286 284 286 284 286 285 284 284 283 283 283 282 285 287 287 286 286 287 285 286 284 284 284 284 282 282 282 285 281 282 280 278 277 274 273 278 279 278 277 275 272 274 277 279 280 281 282 284 285 284 284 279 277 278 283 281 283 282 282 280 281 280 281 281 282 283 283 283 283 284 284
Wind_Speed
10 10 10 10 10 10 10 10 10 10 10 10 10 10 10 10 10 10 10 10 10 11 11 12 11 11 10 9 8 7 7 2 3 3 3 5 3 6 7 3 13 13 9 8 9 9 5 5 6 1 4 4 2 3 2 1 1 3 4 5 6 7 6 4 8 8 2 5 5 3 4 5 9 2 2 2 8 10 12 10 9 10 11 13 6 4 4 4
9 9 9 9 9 9 9 9 10 10 10 10 10 10 10 10 10 10 10 10 10 10 11 11 12 11 11 10 9 6 4 3 4 3 12 6 5 8 4 9 13 13 10 8 10 8 7 6 4 4 5 4 1 0 1 2 2 5 2 4 8 3 3 5 6 7 4 8 6 1 4 3 10 4 2 6 10 9 12 15 12 13 16 16 14 9 5 6
8 9 9 9 9 8 8 8 8 10 10 10 10 9 10 10 10 10 10 10 10 10 10 11 12 12 11 11 10 3 3 4 3 6 1 5 5 8 7 10 15 13 11 7 6 8 4 5 7 7 3 3 1 2 2 2 3 4 4 7 9 7 4 4 4 7 9 9 9 9 2 4 4 1 1 7 12 9 14 14 10 11 15 13 12 12 10 8
8 8 8 8 8 9 8 8 9 9 9 9 9 10 9 10 10 10 10 10 11 10 10 10 11 11 10 10 9 2 3 5 5 1 2 3 4 8 9 11 12 11 3 3 5 5 4 7 6 5 3 6 2 1 4 4 4 3 5 8 6 2 6 7 11 11 7 1 8 6 3 7 8 6 5 5 8 14 16 17 17 17 14 11 9 7 6 8
7 7 7 7 8 8 8 9 9 9 10 9 9 9 9 9 10 10 10 10 10 10 10 10 11 11 11 11 8 1 4 7 1 2 4 3 6 8 10 12 11 7 4 7 8 6 6 8 7 2 2 5 2 2 7 5 2 2 10 9 9 3 6 5 7 3 3 1 6 6 7 10 4 3 10 10 10 14 11 9 10 13 13 13 13 9 5 7
7 7 7 7 7 8 8 8 9 9 10 10 9 9 9 10 10 10 10 10 10 10 10 10 10 12 11 9 3 2 2 5 1 1 4 5 7 7 11 11 8 7 10 9 6 7 8 5 7 4 4 5 7 8 3 4 6 9 10 12 11 7 10 2 2 2 4 4 6 8 6 4 6 11 9 12 17 20 19 15 16 15 14 13 8 4 6 8
6 7 7 7 7 8 9 8 8 9 10 10 10 10 10 11 11 10 10 10 10 10 10 10 10 11 11 4 2 3 4 7 2 2 6 6 6 8 9 9 8 9 10 7 7 8 7 6 8 6 4 3 7 8 4 5 3 7 11 2 7 6 12 7 3 5 4 6 10 7 6 11 8 13 3 15 20 24 23 19 19 17 13 5 10 12 14 13
6 6 6 6 7 8 9 8 8 9 10 10 10 11 11 11 11 11 11 11 10 10 9 10 9 9 8 1 2 1 4 8 2 2 5 7 8 10 11 6 7 7 10 12 11 9 7 8 10 3 7 8 1 8 2 4 6 9 12 9 8 2 10 8 5 5 8 11 11 6 10 19 14 13 6 18 19 21 20 19 19 17 15 13 13 16 15 15
3 5 6 6 7 8 8 9 9 9 10 11 11 11 12 11 12 12 12 11 10 10 9 9 10 9 2 3 2 5 8 4 3 3 8 8 8 9 11 9 6 12 7 2 4 5 8 8 5 9 6 7 3 7 4 5 9 13 16 7 5 7 9 8 5 8 9 7 6 6 17 20 13 3 16 27 23 20 17 17 17 13 13 15 15 15 13 14
3 6 6 6 7 8 8 9 10 10 11 11 12 12 12 12 12 12 13 12 11 10 8 8 8 8 2 3 3 7 2 4 2 4 4 7 8 8 4 2 11 9 7 5 3 7 11 5 8 3 2 3 3 5 3 9 3 2 4 7 10 11 11 7 10 10 8 11 7 12 16 18 2 2 14 14 11 11 11 14 14 9 12 13 10 10 11 12
5 5 7 7 8 9 9 10 10 11 12 12 13 13 13 13 13 13 13 12 11 10 9 7 5 3 3 3 6 12 3 1 2 4 5 6 9 9 8 4 7 9 6 3 8 11 2 5 5 5 1 4 4 3 5 3 4 3 5 10 13 12 11 10 10 14 4 11 12 14 17 16 6 3 18 18 5 3 5 10 12 11 12 12 11 10 9 9
5 7 8 8 9 9 10 10 11 12 13 14 14 14 15 15 15 15 14 13 11 9 8 6 1 1 2 3 9 9 3 3 4 4 5 6 5 3 3 1 5 5 9 7 7 3 1 4 8 7 4 6 5 1 4 2 2 2 5 10 11 12 14 17 13 12 10 10 6 8 8 12 9 12 21 18 12 6 9 13 15 15 13 11 10 9 9 10
9 6 8 8 9 10 10 11 12 14 14 15 15 15 16 16 16 15 14 12 8 5 2 5 3 2 2 9 7 3 2 4 6 7 5 4 6 4 3 2 1 2 3 4 2 3 4 5 7 9 2 4 1 5 4 1 2 3 5 4 12 13 13 8 4 2 3 4 7 9 9 6 13 19 17 13 2 3 8 12 13 12 11 9 9 9 10 10
6 2 8 8 9 10 11 12 14 15 16 16 16 16 17 17 16 14 11 10 8 6 6 6 3 2 3 9 2 1 1 3 7 6 4 2 5 3 4 4 3 2 1 1 3 1 5 0 1 2 2 5 5 4 4 2 3 6 2 2 9 9 10 2 1 3 5 4 11 6 12 9 11 11 12 2 1 4 11 14 14 13 11 10 8 9 11 15
7 2 5 4 10 10 11 13 16 16 16 17 17 17 17 17 12 9 8 4 3 5 8 7 2 3 4 6 6 1 3 1 5 2 3 6 6 4 3 4 5 4 4 4 3 2 3 5 5 4 4 2 2 5 8 2 1 4 6 6 4 7 7 6 2 7 12 2 4 6 12 11 12 11 9 3 1 2 9 13 16 17 14 13 14 15 15 16
6 6 5 3 9 8 10 12 15 17 17 18 18 18 15 10 5 6 4 5 4 9 6 2 3 2 3 8 2 6 2 4 2 2 1 3 6 2 5 5 4 4 1 5 2 3 2 4 3 0 1 2 6 7 5 5 6 4 8 11 11 7 10 9 9 6 8 2 4 11 13 7 5 7 7 1 3 5 9 16 20 24 23 18 15 13 12 13
6 6 4 4 6 6 9 11 12 15 16 17 19 14 8 1 4 6 6 7 6 3 2 0 3 2 5 2 5 3 1 2 1 1 2 2 2 8 9 6 3 6 7 6 2 4 3 4 1 1 1 5 1 2 4 7 9 9 7 10 6 11 9 10 5 11 4 6 7 12 13 12 15 16 18 16 15 16 18 20 22 21 18 17 15 14 12 11
7 6 5 7 6 7 8 9 12 17 18 16 15 9 4 1 3 3 6 4 2 1 0 1 2 1 8 4 7 0 2 1 2 2 2 2 1 7 3 4 3 7 8 7 1 5 1 3 1 5 3 6 4 6 6 10 9 9 4 6 8 8 11 14 10 2 8 6 11 8 16 19 17 17 17 18 18 16 17 19 20 20 19 17 15 14 13 9
6 6 7 8 7 7 7 8 12 14 16 18 7 1 3 4 2 2 1 1 2 2 3 4 4 6 3 1 3 2 1 2 2 1 4 6 2 3 5 4 7 10 6 5 3 5 2 3 2 3 9 9 10 12 13 16 13 9 6 10 9 12 11 9 12 10 6 15 15 17 19 18 16 12 12 13 14 16 18 20 19 17 14 16 16 13 7 5
7 8 7 6 6 6 6 8 11 14 17 12 3 1 3 1 1 2 2 2 4 5 6 2 6 5 10 8 3 3 1 1 3 3 2 2 6 7 4 3 3 1 6 6 5 5 2 8 8 8 11 12 12 16 18 13 4 5 5 7 13 13 14 14 18 14 3 8 13 17 21 20 17 15 16 16 18 19 22 21 15 15 16 16 13 6 5 7
7 7 6 6 6 6 6 8 9 14 15 5 4 1 3 1 3 3 5 9 9 4 6 11 12 10 10 4 1 1 1 1 2 2 1 1 3 9 5 5 7 5 5 2 4 3 3 8 9 13 15 13 8 5 7 10 9 11 12 10 14 9 17 13 15 9 3 5 9 7 17 18 19 18 18 19 18 21 20 17 17 19 17 13 6 7 8 6
7 7 6 6 6 6 6 6 10 13 7 2 3 4 2 1 2 1 1 6 3 7 6 11 6 7 5 3 2 2 2 5 2 4 3 3 3 6 4 6 6 8 5 4 2 3 6 9 10 14 13 4 1 2 3 8 11 12 11 11 10 12 15 16 15 12 4 2 12 9 17 15 19 22 24 18 16 15 16 16 17 17 15 6 6 7 6 5
6 6 6 6 6 7 6 5 7 7 3 2 3 1 1 2 1 1 2 2 7 3 6 6 4 9 9 1 3 5 7 10 6 4 6 5 4 4 6 6 7 2 4 8 8 5 7 7 15 16 7 4 5 4 4 6 8 9 10 8 12 8 7 9 5 2 2 1 13 15 20 16 20 19 15 12 10 12 14 14 18 8 8 8 9 3 3 1
5 6 5 5 4 6 6 5 6 0 3 1 2 2 2 1 2 2 3 4 4 6 2 2 4 3 4 3 2 5 8 3 2 4 3 4 7 3 4 8 5 4 9 11 13 11 11 3 3 2 5 9 12 8 6 8 13 9 12 10 12 15 13 11 10 5 9 12 6 13 14 10 4 5 5 4 4 7 11 16 3 8 6 6 3 2 2 4
4 5 5 4 5 4 4 5 2 2 1 1 1 1 2 1 1 1 3 3 2 6 3 1 1 3 1 2 0 4 2 2 1 3 1 3 5 4 2 2 2 9 10 8 9 10 11 2 4 2 2 5 7 6 10 11 12 9 8 12 17 16 16 15 13 10 7 6 4 8 12 3 2 3 6 11 6 7 14 6 10 8 8 5 5 7 4 2
2 3 4 3 3 4 4 3 1 3 1 1 2 2 2 1 0 1 3 2 5 2 0 3 2 2 0 2 2 1 4 3 2 1 2 2 3 2 3 4 1 3 3 4 6 5 6 2 1 7 4 3 6 8 10 8 11 9 6 7 13 14 13 11 12 7 7 4 2 5 4 12 2 10 8 9 5 11 16 2 5 6 5 4 5 7 5 6
4 2 3 3 5 6 2 2 2 3 2 3 3 3 2 2 1 2 3 3 4 3 1 2 2 2 2 1 1 4 3 2 1 2 1 1 3 1 5 3 2 2 1 2 1 5 4 0 3 2 6 6 5 8 7 11 7 9 3 3 3 6 8 6 4 5 10 4 6 7 8 10 13 3 2 1 9 15 11 3 10 8 7 8 5 6 7 9
7 6 4 4 7 8 1 2 2 2 2 3 4 4 3 3 3 2 2 6 3 3 1 2 1 0 1 1 1 2 2 2 1 2 1 2 2 3 4 5 5 3 5 3 8 2 5 4 5 5 6 5 9 10 6 11 8 1 2 2 2 3 3 2 3 6 4 7 6 4 3 5 8 1 2 6 7 9 6 6 11 9 9 6 6 7 11 13
10 10 8 5 7 4 2 0 1 2 2 3 5 5 3 4 2 3 2 5 1 1 3 1 1 1 2 0 2 3 1 1 1 2 1 1 3 2 4 3 3 1 2 6 9 2 2 2 6 7 5 8 7 2 6 9 9 2 4 6 5 3 3 0 4 5 5 5 10 7 8 5 16 2 5 1 2 7 4 10 14 10 6 3 5 11 13 12
9 9 10 3 7 3 1 2 4 2 4 4 4 5 5 2 1 4 3 7 4 1 3 2 3 0 0 4 2 3 3 2 1 1 2 2 2 2 3 1 1 2 6 2 6 7 3 0 3 2 9 6 4 4 1 6 2 5 4 1 2 1 1 1 0 3 4 9 10 11 13 8 12 0 2 6 1 2 4 9 8 6 4 7 9 11 11 11
8 9 10 4 3 2 4 2 2 4 4 3 4 3 1 0 2 3 8 1 4 3 2 1 2 1 4 3 2 2 1 1 2 2 3 2 2 1 1 2 1 1 1 2 6 6 3 2 2 5 3 4 3 5 4 3 1 1 1 1 4 3 2 2 0 1 4 11 1 4 8 12 10 2 4 1 3 4 3 2 2 9 8 6 9 11 11 9
7 7 8 4 3 2 4 1 3 4 4 5 3 1 1 3 2 8 3 3 3 0 0 1 2 1 3 2 0 2 2 1 2 3 5 4 3 6 7 6 4 3 4 3 3 5 3 8 3 2 1 6 4 4 2 2 1 4 3 2 2 3 5 3 3 2 8 8 2 5 4 5 16 12 6 9 10 3 2 3 7 10 10 9 11 12 10 8
4 4 5 2 2 2 2 2 6 5 5 2 1 2 1 2 9 5 1 2 3 1 2 3 1 1 2 1 2 0 3 2 3 3 3 1 2 7 5 5 2 2 8 2 4 5 4 4 3 6 1 6 8 7 3 2 5 6 6 3 3 2 3 5 5 3 6 1 2 2 1 10 10 6 14 19 13 6 7 10 9 9 8 10 10 10 11 12
4 3 1 1 2 3 1 4 5 7 5 2 3 4 4 6 4 4 6 6 5 2 2 2 2 3 1 5 2 4 3 3 5 3 4 2 1 3 4 7 6 2 2 2 5 1 10 9 5 8 4 9 12 12 6 2 9 10 3 8 5 4 3 5 4 7 5 3 2 1 1 4 2 2 4 4 5 5 8 7 8 10 10 10 11 11 11 12
4 3 3 1 2 4 5 4 6 6 3 4 3 3 7 9 3 6 6 5 4 3 5 4 1 0 4 2 1 3 6 4 3 3 3 4 4 3 5 4 5 6 2 2 2 2 9 11 1 5 3 9 11 5 6 6 2 2 1 2 2 8 3 8 5 3 4 6 4 4 6 3 7 4 6 5 7 13 14 13 13 13 10 9 10 11 10 9
2 1 3 2 3 3 7 4 4 4 5 5 3 5 13 7 4 5 3 2 2 2 1 1 4 4 8 6 2 2 1 5 1 2 2 5 2 4 2 2 5 14 6 6 3 3 2 6 5 2 3 8 5 6 5 4 6 4 5 7 6 3 7 4 2 1 3 2 11 4 7 12 11 14 8 2 13 13 13 12 11 10 8 9 10 9 8 8
2 1 2 3 3 4 7 6 5 5 4 5 5 12 8 4 11 3 2 6 2 4 2 5 4 5 2 3 3 2 2 2 3 2 4 2 5 9 4 5 2 6 10 6 5 5 8 10 2 4 5 7 3 3 3 4 2 8 4 5 3 0 3 3 4 2 4 9 7 6 11 12 8 10 4 10 12 10 11 10 10 8 7 10 8 7 8 8
1 1 2 2 5 6 8 8 8 5 5 7 14 13 4 8 2 10 3 3 1 1 2 5 5 1 3 5 6 5 3 5 2 4 3 5 6 6 3 3 4 7 7 2 3 3 1 7 8 7 5 4 3 2 3 3 5 2 0 3 3 4 5 7 1 6 8 9 6 10 15 15 12 12 6 7 9 7 11 7 8 8 8 8 7 7 7 6
2 2 2 4 5 9 8 9 8 7 6 9 11 12 7 9 3 4 3 3 1 2 5 6 7 3 5 6 4 2 5 6 3 3 4 4 7 4 4 0 2 2 3 3 4 2 1 8 3 4 2 4 3 4 6 6 1 2 1 4 2 3 6 5 5 1 4 12 10 9 10 10 10 11 13 4 6 5 7 8 8 7 7 5 6 6 5 6
3 3 4 2 4 9 10 9 7 8 7 15 12 10 3 1 5 0 4 6 3 6 5 6 5 9 5 6 4 8 2 6 4 5 7 2 8 1 1 3 2 3 4 3 4 1 4 2 10 2 2 2 4 7 7 7 6 6 5 6 2 3 2 3 3 4 7 11 11 11 12 8 6 5 1 6 5 6 5 8 6 6 6 6 5 4 4 4
1 2 2 3 7 11 10 7 8 12 12 7 5 7 3 6 2 1 1 2 2 3 2 3 4 8 2 2 5 3 2 3 3 6 3 3 2 7 6 5 2 2 2 5 1 1 2 1 8 4 5 7 10 5 5 9 8 8 10 10 11 5 4 8 12 7 8 7 6 8 10 3 2 3 9 7 7 6 7 9 8 6 5 5 3 3 3 2
4 3 1 2 10 13 12 14 7 3 3 10 12 9 7 1 3 4 3 4 2 3 3 2 2 4 4 9 10 5 4 5 6 6 4 9 5 9 1 6 4 2 2 4 2 2 3 1 5 10 11 13 14 2 2 1 2 2 5 8 7 8 8 8 12 9 7 4 5 8 11 8 5 8 8 8 7 8 7 8 8 7 6 4 3 2 1 2
3 2 2 2 9 14 12 7 6 5 7 4 4 2 2 2 3 1 3 1 0 1 1 3 6 7 6 9 7 8 5 6 6 9 5 4 9 4 4 5 3 2 2 3 3 0 3 1 3 9 10 10 14 11 5 1 1 6 7 2 2 7 10 6 6 4 5 2 6 7 12 1 3 5 9 9 9 8 6 7 9 7 6 5 4 3 2 1
1 1 1 3 2 11 8 10 11 11 8 6 5 6 3 4 3 2 3 4 4 2 3 1 3 5 5 2 2 5 1 3 3 5 5 2 3 4 4 7 4 2 2 2 2 4 2 3 3 6 8 7 8 7 4 3 2 1 6 5 6 8 10 9 7 1 6 9 14 12 13 3 2 5 6 8 8 8 7 4 5 7 5 4 4 3 2 1
2 1 1 3 3 3 9 3 5 9 11 13 11 12 11 5 4 8 7 6 3 5 2 3 6 2 3 2 1 1 4 9 5 2 4 5 5 3 2 4 4 3 2 2 3 2 2 3 3 8 9 10 10 10 7 2 3 4 3 3 5 6 7 5 10 9 14 5 15 11 13 9 3 2 4 5 7 8 6 6 4 4 4 3 2 2 1 1
2 5 2 1 0 1 2 1 2 5 8 9 10 11 10 11 4 2 6 7 8 6 8 7 2 2 2 3 5 6 8 5 7 2 2 2 1 1 1 2 4 2 1 3 1 2 1 1 4 8 10 11 10 8 3 3 5 8 7 7 10 9 6 7 9 9 9 6 10 7 9 10 9 8 9 11 7 3 5 6 5 4 3 2 1 1 2 3
1 3 4 4 1 3 2 2 2 2 6 4 5 2 14 15 10 4 4 4 1 5 1 7 4 4 3 5 7 9 10 10 8 7 10 11 4 1 3 2 2 6 1 1 2 1 1 5 7 11 12 12 13 11 12 8 11 9 10 11 10 11 12 13 10 13 9 12 13 10 13 11 10 10 11 8 7 5 2 4 5 3 3 2 1 1 3 2
2 0 3 3 1 5 7 6 4 2 1 2 7 2 3 4 5 8 3 1 3 1 5 1 6 7 6 4 1 4 4 9 6 7 3 2 3 2 1 3 4 5 1 1 2 2 2 9 7 10 9 13 14 14 10 7 6 9 12 11 14 14 13 15 16 15 12 14 14 11 15 16 14 15 14 16 2 1 3 3 3 3 2 2 2 2 1 2
1 1 1 3 3 2 1 3 4 3 4 3 2 3 8 9 10 4 1 2 1 1 3 6 3 4 4 2 2 2 3 4 3 1 0 3 1 2 2 3 3 4 5 2 1 1 1 7 9 4 8 9 10 10 8 8 6 8 10 12 13 15 18 18 19 17 19 19 18 21 22 25 20 22 16 3 5 5 5 3 2 2 3 4 4 4 4 4
1 2 2 3 5 4 1 2 1 1 5 3 4 5 3 6 14 7 1 2 4 4 3 6 0 4 4 4 1 5 6 9 9 13 0 3 4 2 2 4 3 1 2 2 2 3 3 5 3 0 8 8 7 11 11 11 9 11 11 12 15 17 19 17 17 18 18 18 20 22 23 22 12 2 7 4 6 4 3 1 2 4 4 5 6 6 6 7
1 2 1 3 2 2 4 1 2 1 1 2 5 6 2 6 7 1 4 4 4 9 1 2 4 2 3 3 0 2 1 3 1 3 2 1 4 1 2 1 6 3 5 0 0 2 3 4 4 4 8 8 6 11 12 10 8 12 12 14 19 19 18 14 16 12 14 15 18 19 15 14 1 3 7 6 3 3 0 1 3 3 5 6 8 9 9 8
2 1 1 1 2 3 4 3 2 3 4 2 2 1 1 2 1 1 3 4 8 8 6 6 4 2 3 3 7 3 3 4 4 5 4 4 5 5 4 7 7 4 2 2 1 3 3 3 5 5 11 10 12 9 9 6 8 12 14 18 20 20 19 20 18 17 19 19 14 13 13 2 2 3 4 3 3 2 3 4 3 5 6 8 8 10 10 9
Wind_Direction
40 36 35 33 27 23 18 15 11 8 5 5 5 3 2 3 0 358 357 353 350 349 343 339 339 338 340 342 343 343 321 250 183 209 223 245 97 128 167 112 143 141 155 133 131 145 144 158 164 130 166 206 34 214 59 208 358 199 218 237 242 258 227 197 223 199 28 282 286 183 186 242 276 191 139 220 230 239 265 253 235 238 245 237 253 82 91 136
39 33 30 29 26 20 15 13 10 4 357 356 357 354 355 353 354 351 351 350 347 345 343 337 335 337 338 336 338 337 295 222 226 209 241 110 139 161 159 147 140 151 158 157 165 179 155 174 158 182 171 198 29 320 274 165 243 218 215 226 267 222 255 177 223 229 217 268 283 303 156 246 274 336 317 288 276 256 273 265 238 233 244 243 243 219 187 167
34 28 22 20 16 12 8 6 5 0 355 349 348 347 348 347 345 345 344 344 343 341 340 337 335 332 335 335 335 315 268 251 236 239 178 89 152 162 162 147 154 162 175 175 182 182 200 195 162 171 181 230 99 179 234 161 205 222 240 249 243 234 230 213 225 231 225 282 280 277 232 225 258 302 87 254 281 275 262 272 264 229 249 245 233 230 204 197
27 21 15 14 10 5 0 358 356 354 352 347 340 340 340 340 338 339 338 339 337 337 337 335 331 330 331 331 334 303 266 271 269 92 105 193 166 161 161 153 154 169 109 71 151 135 101 114 142 210 156 232 120 241 214 178 224 130 213 239 265 254 251 225 224 239 247 255 271 268 266 269 256 229 202 250 284 264 251 247 253 268 276 280 263 227 172 207
17 14 10 5 5 2 354 352 349 347 348 343 339 332 335 335 332 330 333 331 335 332 333 334 331 326 331 329 340 237 311 282 53 276 123 145 163 165 154 155 152 163 177 124 113 116 153 151 150 110 208 221 157 192 240 161 266 144 231 249 261 107 252 242 222 221 235 345 257 255 267 277 70 216 216 227 246 270 263 264 242 260 280 277 278 268 176 213
6 5 3 358 358 1 351 345 345 342 345 339 335 333 329 329 327 325 327 329 326 332 331 331 331 328 326 334 283 229 300 320 137 201 163 180 166 161 156 140 142 139 133 147 148 153 144 155 173 184 201 224 200 219 139 199 157 248 230 237 249 240 261 257 233 143 183 211 220 257 268 323 240 269 229 215 233 252 261 271 277 278 276 277 282 267 238 222
1 356 356 353 352 352 348 343 338 341 341 336 332 331 328 327 323 328 324 325 324 326 330 327 327 328 332 307 218 267 227 274 213 173 141 153 156 145 132 117 135 147 161 131 153 161 196 159 207 214 204 234 241 233 191 186 203 245 268 149 253 229 241 251 254 115 210 233 250 260 311 275 257 272 214 225 234 248 264 271 272 275 274 267 268 255 249 247
359 350 350 348 346 343 343 341 338 339 337 333 329 330 329 326 325 322 324 319 322 321 327 323 327 328 344 232 237 167 169 246 228 34 151 130 130 127 120 121 154 160 180 189 170 188 168 188 204 111 235 238 122 204 145 199 187 235 252 250 264 252 257 269 264 234 249 249 257 282 276 263 258 263 289 252 246 253 262 269 267 267 268 265 255 260 256 254
36 344 345 345 341 339 340 339 337 335 333 331 329 325 325 322 320 319 316 316 315 315 316 325 319 336 300 272 217 269 228 242 25 152 146 127 127 124 145 149 191 175 190 170 209 169 178 217 216 186 268 226 138 239 156 234 244 207 244 269 270 262 272 269 254 231 233 256 203 241 254 263 269 21 266 259 259 256 262 266 269 268 260 259 254 255 252 251
9 338 328 337 339 342 337 333 332 334 331 327 325 323 319 319 315 313 311 309 307 307 305 312 330 320 328 177 173 260 296 66 77 120 109 120 127 141 197 127 171 178 164 183 147 165 205 194 206 169 0 288 159 235 99 202 280 62 300 291 287 286 292 270 254 265 229 249 187 221 256 265 142 200 278 271 244 249 244 257 267 265 262 258 251 251 249 248
323 321 328 338 350 338 333 331 330 330 330 328 325 322 321 317 315 309 308 303 301 295 296 293 351 338 217 189 240 264 96 151 79 114 126 134 137 160 183 169 178 178 188 133 201 202 198 105 113 115 161 241 146 205 205 237 360 4 340 298 276 274 263 252 244 254 234 269 213 221 251 266 243 167 248 268 106 124 266 268 269 257 256 263 263 256 251 245
290 326 347 339 337 336 332 330 329 328 328 328 324 322 320 317 314 310 304 301 292 286 276 283 87 294 285 227 240 245 22 73 132 120 125 147 119 43 14 207 194 198 184 183 217 216 85 145 158 177 263 111 241 14 229 337 322 358 312 293 292 291 286 270 248 262 182 241 145 193 233 259 229 227 244 250 271 292 275 274 273 270 266 264 267 268 259 249
321 13 342 336 336 334 334 331 328 326 326 325 323 322 319 317 313 310 303 297 287 271 275 137 105 254 239 265 250 41 351 113 116 112 97 82 107 82 56 52 85 11 312 274 220 171 166 162 184 207 123 216 167 271 106 217 80 269 226 279 300 288 278 295 203 34 181 236 149 151 269 214 230 233 246 257 265 295 277 271 266 268 269 267 267 270 271 265
277 332 337 335 335 334 330 328 326 325 325 324 323 322 319 316 315 310 307 291 281 251 234 221 206 203 217 257 95 342 114 127 122 129 125 191 148 72 94 72 82 64 338 74 56 92 133 196 162 77 66 229 243 93 196 95 186 278 328 128 266 287 268 106 142 111 256 155 173 200 263 261 268 277 283 12 102 277 282 283 282 275 271 270 263 256 266 269
282 260 272 323 335 330 326 324 325 325 324 324 325 322 319 318 318 323 319 306 235 194 120 94 187 188 203 267 95 7 187 315 181 133 150 168 144 124 107 125 73 52 66 66 109 99 137 128 119 201 218 70 322 276 266 315 253 263 283 247 194 231 263 290 208 201 260 128 231 183 261 257 252 272 287 91 43 249 277 286 286 281 274 270 269 266 264 268
267 265 283 312 332 325 321 323 321 323 323 325 326 321 318 319 350 351 45 70 99 156 150 205 152 288 321 274 121 120 195 213 157 27 136 311 196 175 121 114 121 89 164 55 90 119 76 160 187 260 336 153 227 238 265 298 254 210 233 267 268 245 274 299 265 261 245 115 208 208 266 290 240 250 264 184 275 236 264 279 283 283 284 281 274 269 263 271
274 267 269 266 288 316 318 314 318 321 323 325 324 319 328 1 57 55 76 69 60 104 214 51 137 240 257 72 121 242 187 87 142 135 87 26 353 132 129 121 123 99 91 109 105 137 59 172 28 207 223 257 283 193 280 257 265 245 208 258 243 269 294 278 307 268 132 178 244 215 251 251 265 273 281 284 278 281 283 279 276 278 279 277 278 275 273 277
257 275 275 271 272 283 304 311 321 325 324 326 322 320 325 303 153 131 94 68 65 127 219 216 232 274 238 105 261 96 44 166 106 115 36 0 223 144 128 131 107 125 131 110 79 187 316 165 285 226 188 211 193 216 221 253 249 273 233 254 266 226 224 267 289 325 324 229 266 261 244 260 258 261 266 269 278 273 269 269 268 271 275 280 279 280 285 302
246 237 239 253 266 282 300 305 320 325 326 325 313 315 74 87 88 227 80 158 223 166 185 161 187 201 294 96 12 120 141 60 130 232 133 129 90 82 82 66 142 146 159 192 137 183 148 118 185 200 231 213 207 211 222 237 255 280 304 285 287 284 275 266 262 273 264 286 289 281 276 283 288 274 264 266 269 273 267 267 269 272 280 277 275 280 318 328
229 239 248 265 270 273 282 300 319 328 334 331 27 1 200 230 206 157 169 222 226 270 317 267 238 323 318 266 216 44 18 206 200 38 111 306 149 144 75 145 77 327 151 207 138 197 164 192 186 203 226 227 219 215 229 254 14 311 271 261 269 277 279 268 272 277 252 295 256 262 275 287 287 284 280 277 272 271 268 264 279 285 274 271 272 317 14 28
232 238 246 249 258 263 280 308 325 329 333 314 284 276 31 9 326 325 332 272 263 281 256 248 224 239 251 68 89 223 262 159 24 113 117 89 302 164 154 151 171 193 198 37 126 84 212 219 217 226 239 250 253 251 260 272 277 269 271 276 276 264 275 267 281 292 273 253 279 262 278 281 289 286 276 267 264 264 268 286 276 269 271 274 347 54 40 0
232 236 236 243 252 261 281 305 327 332 327 256 1 61 139 322 333 309 311 297 262 226 232 249 50 267 283 33 62 298 0 312 171 94 109 226 145 229 145 203 167 225 107 134 122 170 205 224 225 230 240 65 32 260 226 247 258 258 257 269 279 269 269 276 259 271 301 289 284 286 289 290 286 277 272 270 264 262 269 254 264 264 271 357 31 31 358 312
237 240 239 237 242 259 273 304 326 351 329 1 56 109 104 89 108 261 312 250 269 218 228 238 227 248 277 287 196 127 255 230 261 154 177 196 109 257 140 185 204 161 145 191 214 199 246 226 231 236 232 236 241 213 239 260 249 253 256 245 257 275 284 298 175 75 145 257 300 310 297 292 262 262 269 278 234 251 249 253 244 281 356 336 338 327 256 312
246 249 248 247 241 256 280 313 307 290 36 25 117 69 58 96 156 161 202 261 320 285 205 208 247 246 248 305 65 221 207 242 184 230 93 200 186 120 188 205 190 174 218 199 219 233 242 52 41 272 226 222 241 225 228 249 260 231 235 256 270 265 255 246 289 336 312 280 259 310 283 280 323 169 117 202 235 285 274 256 289 66 62 66 135 154 18 41
280 268 260 248 236 235 245 304 297 63 154 233 242 97 95 45 277 101 272 253 186 254 119 149 69 223 106 94 165 195 150 134 320 20 312 286 135 168 213 31 223 232 227 208 231 250 259 255 135 122 147 214 223 240 224 233 260 262 222 225 247 264 279 279 287 329 300 284 77 337 333 301 191 25 333 347 332 292 260 227 85 79 73 83 75 56 69 92
330 279 258 234 227 212 235 267 136 140 234 209 86 116 98 95 22 339 274 327 285 161 183 187 197 122 279 128 22 323 157 186 10 334 349 339 340 292 108 195 190 295 173 157 235 255 270 63 135 237 179 174 207 238 241 196 254 269 269 217 253 264 272 281 290 322 286 284 79 12 319 294 196 271 280 269 269 259 260 53 97 79 67 78 75 81 58 47
43 4 259 219 198 184 252 269 102 180 279 113 119 110 121 123 158 184 274 219 271 128 181 21 216 121 200 60 103 154 198 115 149 123 161 0 222 182 250 202 128 95 10 116 332 227 186 94 112 110 174 195 216 243 223 190 237 259 49 338 255 260 261 280 301 243 269 328 272 192 215 274 299 199 192 254 229 249 275 317 75 85 91 65 55 62 56 47
37 25 354 240 187 193 305 109 180 237 310 97 108 114 132 130 130 194 245 307 294 82 123 190 48 284 246 107 267 261 38 342 183 105 314 348 280 136 243 243 229 197 167 172 258 56 190 141 172 160 188 192 220 224 116 184 202 324 359 42 38 322 319 293 260 280 289 330 305 162 162 265 262 107 145 232 257 266 322 31 59 82 96 99 82 67 58 44
29 20 352 303 194 184 57 290 271 245 85 139 122 124 121 144 202 291 18 269 132 81 13 69 23 172 46 266 96 55 151 73 318 67 300 200 4 300 222 255 202 185 174 223 257 193 245 203 206 189 174 229 211 114 172 162 226 140 133 96 102 107 77 276 286 296 293 299 272 146 188 267 283 181 176 11 247 296 73 68 79 75 67 44 69 66 52 49
28 13 358 141 107 111 234 69 234 98 130 123 138 130 122 171 227 224 194 235 44 259 156 110 193 226 283 154 189 54 198 83 89 47 50 172 86 142 73 353 204 157 221 216 251 267 61 57 357 196 220 254 84 45 322 211 80 113 175 165 143 135 81 119 5 315 299 254 262 173 191 219 283 266 139 174 34 69 52 97 112 103 92 65 50 46 42 43
26 8 5 330 157 195 134 224 173 124 126 120 109 129 136 123 228 208 235 265 346 208 59 207 181 116 155 204 166 83 194 10 136 168 137 181 155 176 238 205 136 224 263 246 248 234 181 135 224 235 1 68 108 98 47 14 62 221 205 260 302 214 149 219 221 178 257 269 324 163 199 202 232 159 311 55 308 216 211 350 83 112 69 57 51 47 45 47
20 5 355 349 301 317 190 201 145 146 142 135 142 197 196 272 130 217 213 103 250 220 257 182 27 80 98 20 15 166 166 162 209 177 187 180 188 188 190 233 165 277 249 185 269 94 211 211 198 328 272 197 168 221 105 81 175 207 196 243 265 285 9 282 134 244 214 255 44 336 4 286 240 242 281 297 295 340 144 343 34 74 76 66 59 61 59 46
14 358 336 284 287 223 255 126 145 152 129 131 109 49 137 186 255 158 257 192 261 72 184 43 87 151 132 132 227 172 23 235 138 218 110 172 174 239 231 237 120 204 280 70 288 292 268 100 144 216 274 210 185 202 157 216 179 172 196 168 117 268 214 258 265 266 288 258 75 20 159 249 280 276 231 252 273 27 63 62 73 78 78 74 70 63 55 44
346 335 93 214 262 255 72 154 157 154 146 138 121 66 88 236 233 28 195 209 237 67 50 116 113 81 199 256 290 161 269 208 148 196 202 165 125 276 213 208 162 245 181 355 279 321 295 282 198 152 222 148 192 213 206 186 163 196 177 171 200 184 190 261 219 248 247 279 61 213 355 243 326 23 66 1 330 322 49 61 77 76 74 71 64 59 51 47
304 257 197 266 231 236 175 178 166 174 122 125 90 180 240 247 130 191 216 226 273 324 283 76 252 24 238 210 302 251 226 291 122 108 189 183 224 215 240 219 176 181 86 274 228 83 225 251 118 165 12 155 186 207 96 103 118 155 134 15 221 226 196 228 233 237 287 298 272 169 222 299 252 16 274 260 276 84 96 83 80 76 69 65 59 49 45 42
319 24 163 218 204 216 164 169 177 176 162 129 147 210 227 201 227 161 223 199 68 209 316 233 148 249 260 248 148 206 110 220 101 181 219 211 293 263 146 212 172 178 168 200 163 254 162 256 114 143 101 207 195 121 221 166 246 139 158 203 216 16 183 253 298 200 66 309 254 263 276 263 277 273 274 342 97 106 95 85 79 81 75 65 60 47 42 38
77 347 153 202 222 172 163 162 166 168 175 174 198 239 223 236 225 207 207 167 203 128 110 259 240 206 215 263 145 180 171 72 251 167 251 130 273 210 231 255 155 204 210 199 266 204 268 277 114 129 233 228 41 293 329 5 99 110 212 228 55 329 11 217 260 125 200 230 246 190 254 280 303 301 103 135 108 97 93 89 91 83 78 69 60 51 40 38
119 186 259 207 210 163 167 163 155 165 171 191 216 232 103 233 215 216 107 106 47 66 162 198 269 172 254 245 260 147 178 206 151 115 262 156 267 112 163 252 169 199 223 26 225 318 269 276 249 210 212 59 4 197 250 162 302 270 160 343 193 219 222 203 177 242 233 237 251 208 241 254 250 251 178 155 128 134 100 93 72 56 57 67 65 55 48 43
126 158 266 215 202 166 163 156 167 158 172 205 221 241 227 232 85 182 194 117 128 124 224 230 236 239 246 243 248 42 152 233 147 213 256 197 232 171 217 257 254 145 18 169 225 272 116 266 281 38 117 119 118 174 224 176 168 105 317 261 45 330 256 212 201 248 253 259 253 232 209 243 220 239 261 315 135 99 99 90 79 75 59 61 62 54 44 41
159 102 264 112 170 157 149 156 166 186 198 214 215 220 97 234 223 132 178 188 242 184 237 245 194 250 231 250 135 262 219 218 187 239 208 345 254 225 252 165 256 80 39 11 249 7 258 203 259 152 295 148 217 178 222 186 186 209 224 239 212 224 15 312 311 215 223 255 244 264 251 236 225 274 336 116 84 85 109 110 103 92 86 77 73 73 71 59
314 116 234 106 151 152 146 161 183 203 209 239 268 242 229 252 103 355 53 11 226 355 218 196 173 225 240 9 245 143 243 206 209 240 205 286 227 274 27 2 341 80 102 50 72 285 286 240 258 276 267 227 249 180 214 227 220 212 192 215 210 199 219 239 246 192 236 226 230 236 244 205 273 25 114 102 81 86 84 95 96 89 82 82 71 73 74 90
143 147 182 98 152 160 160 177 218 188 233 213 223 211 237 102 243 231 105 41 195 263 33 201 252 255 260 260 268 267 257 261 243 248 233 244 210 235 110 17 35 330 295 276 326 32 307 319 254 245 232 251 270 72 104 171 352 333 262 252 215 226 211 221 252 221 229 232 268 258 274 224 85 73 94 97 109 110 117 120 118 128 128 125 122 108 101 75
174 157 56 332 171 171 167 205 195 197 217 251 52 306 155 269 159 197 107 126 169 215 325 249 231 241 245 252 256 267 238 252 238 246 234 231 266 301 337 347 3 23 359 325 319 123 68 262 256 254 255 262 271 260 124 146 252 273 240 215 312 230 224 260 280 354 287 262 229 239 238 327 57 103 109 119 118 120 127 136 136 134 139 142 140 151 136 132
109 130 143 358 215 193 178 192 205 206 222 236 224 242 190 199 142 115 163 201 176 163 202 226 1 225 267 86 114 245 100 300 242 255 278 58 264 117 340 28 2 52 315 231 261 273 300 243 307 299 288 269 252 246 207 84 111 296 304 304 269 274 282 262 273 108 260 223 246 250 258 219 252 118 130 124 129 120 120 125 140 135 140 142 145 145 156 188
92 356 305 305 4 228 210 242 221 206 214 224 230 236 238 228 223 239 224 235 204 197 144 247 239 160 219 116 263 206 195 229 281 224 248 255 269 105 8 27 12 102 20 355 38 28 266 271 282 280 276 276 274 271 283 353 15 333 264 285 335 338 329 318 258 247 252 193 222 240 258 264 164 119 108 133 138 136 136 134 114 106 118 121 124 124 100 86
202 160 218 51 20 21 300 284 311 223 213 220 232 239 246 249 236 116 187 259 230 229 235 248 44 138 199 216 248 241 250 199 203 255 231 226 224 350 209 11 46 110 240 145 330 196 230 187 203 239 260 271 282 295 225 223 275 272 277 289 289 290 280 276 290 273 261 312 278 275 288 298 289 274 270 285 311 303 160 151 141 131 130 126 84 28 23 12
315 139 170 186 99 268 217 37 168 249 211 213 226 211 240 240 246 281 185 221 8 196 191 228 193 217 229 226 236 257 252 251 217 241 251 266 256 196 23 93 85 26 333 172 337 88 205 254 231 248 251 262 270 273 283 279 271 273 278 273 266 265 270 271 258 259 291 302 271 266 270 274 271 277 275 271 267 249 105 127 131 148 152 140 183 199 226 227
170 264 70 323 210 193 194 236 175 216 277 207 224 344 259 223 204 219 66 50 76 20 198 307 212 234 257 252 158 251 219 250 216 229 234 230 268 295 145 64 57 334 12 66 307 181 250 266 269 270 272 273 279 285 292 283 256 272 274 274 271 268 266 257 256 265 278 265 273 294 293 281 274 277 279 279 0 2 122 133 128 127 174 204 242 272 307 317
62 33 49 314 184 351 27 70 77 179 226 193 226 258 248 234 234 222 211 12 42 351 241 232 112 25 43 26 97 259 352 343 258 176 19 353 15 349 298 276 156 31 40 3 14 196 256 255 261 319 300 290 288 287 291 287 293 281 269 269 270 266 262 263 271 274 264 262 269 275 273 272 276 273 278 358 78 98 100 115 134 201 231 236 240 260 262 288
192 147 166 58 74 85 48 48 70 64 215 202 220 217 217 233 245 236 48 191 256 243 45 274 98 70 78 79 142 246 268 277 283 274 123 150 259 197 267 247 302 21 38 353 309 294 269 274 9 148 299 280 286 290 287 285 291 281 269 271 270 267 268 271 276 266 269 266 263 262 262 266 266 19 85 90 87 95 108 208 224 251 244 246 255 257 261 255
49 26 29 132 108 146 91 101 120 145 200 219 232 254 274 243 265 281 222 18 258 260 307 180 119 141 152 132 179 228 224 159 173 232 123 206 247 36 48 293 86 313 317 238 194 290 323 275 323 333 297 273 264 280 287 292 278 271 269 261 257 256 263 255 253 253 257 262 263 267 264 263 7 52 89 97 91 108 230 260 250 255 256 254 258 261 260 262
73 302 34 351 104 136 133 124 131 136 224 210 207 152 149 48 49 211 202 77 50 62 76 93 42 32 273 270 264 245 176 165 163 174 181 201 223 248 217 240 272 265 297 241 249 262 233 275 289 289 282 260 277 275 290 305 301 275 241 240 246 252 247 253 254 254 251 261 264 257 264 351 102 108 120 118 118 321 250 274 267 263 247 241 248 256 261 267